| time (UTC) | temp F | wind direction | speed MPH | gust MPH | rain 1hr in | rain 24hr in | rain mn in | humidity % | barometer mb |
| 20260502231521 | 58 | 43 | 6.0 | 9.0 | 0.00 | 0.00 | 0.00 | 90 | |
| 20260502231020 | 58 | 44 | 7.0 | 12.0 | 0.00 | 0.00 | 0.00 | 90 | |
| 20260502230523 | 58 | 37 | 9.0 | 14.0 | 0.00 | 0.00 | 0.00 | 90 | |
| 20260502230018 | 59 | 38 | 9.0 | 14.0 | 0.00 | 0.00 | 0.00 | 91 | |
| 20260502225518 | 59 | 38 | 10.0 | 16.0 | 0.00 | 0.00 | 0.00 | 91 | |
| 20260502225017 | 59 | 46 | 12.0 | 20.0 | 0.00 | 0.00 | 0.00 | 91 | |
| 20260502224516 | 59 | 44 | 12.0 | 20.0 | 0.00 | 0.00 | 0.00 | 91 | |
| 20260502224018 | 60 | 46 | 11.0 | 19.0 | 0.00 | 0.00 | 0.00 | 91 | |
| 20260502223517 | 60 | 41 | 12.0 | 19.0 | 0.00 | 0.00 | 0.00 | 91 | |
| 20260502223016 | 60 | 39 | 11.0 | 20.0 | 0.00 | 0.00 | 0.00 | 91 | |
| 20260502222515 | 60 | 36 | 10.0 | 20.0 | 0.00 | 0.00 | 0.00 | 91 | |
| 20260502222018 | 60 | 38 | 9.0 | 14.0 | 0.00 | 0.00 | 0.00 | 91 | |
| 20260502221515 | 60 | 36 | 8.0 | 12.0 | 0.00 | 0.00 | 0.00 | 90 | |
| 20260502221013 | 60 | 42 | 8.0 | 12.0 | 0.00 | 0.00 | 0.00 | 92 | |
| 20260502220513 | 61 | 42 | 8.0 | 14.0 | 0.00 | 0.00 | 0.00 | 90 | |
| 20260502220014 | 60 | 54 | 5.0 | 14.0 | 0.00 | 0.00 | 0.00 | 90 | |
| 20260502215513 | 60 | 71 | 3.0 | 11.0 | 0.00 | 0.00 | 0.00 | 91 | |
| 20260502215013 | 60 | 68 | 4.0 | 13.0 | 0.00 | 0.00 | 0.00 | 91 | |
| 20260502214509 | 60 | 154 | 7.0 | 13.0 | 0.00 | 0.00 | 0.00 | 90 | |
| 20260502214004 | 60 | 60 | 8.0 | 13.0 | 0.00 | 0.00 | 0.00 | 90 | |
| 20260502213450 | 60 | 49 | 7.0 | 13.0 | 0.00 | 0.00 | 0.00 | 90 | |
| 20260502212949 | 60 | 51 | 7.0 | 10.0 | 0.00 | 0.00 | 0.00 | 90 | |
| 20260502212944 | 60 | 49 | 7.0 | 11.0 | 0.00 | 0.00 | 0.00 | 89 | |
| 20260502211936 | 60 | 49 | 7.0 | 11.0 | 0.00 | 0.00 | 0.00 | 89 | |
| 20260502211430 | 60 | 49 | 7.0 | 12.0 | 0.00 | 0.00 | 0.00 | 89 | |
| 20260502210921 | 60 | 48 | 7.0 | 10.0 | 0.00 | 0.00 | 0.00 | 88 | |
| 20260502210420 | 60 | 50 | 6.0 | 10.0 | 0.00 | 0.00 | 0.00 | 87 | |
| 20260502205913 | 60 | 35 | 6.0 | 10.0 | 0.00 | 0.00 | 0.00 | 87 | |
| 20260502205407 | 60 | 24 | 6.0 | 10.0 | 0.00 | 0.00 | 0.00 | 87 | |
| 20260502204902 | 61 | 10 | 7.0 | 10.0 | 0.00 | 0.00 | 0.00 | 86 | |
| 20260502204354 | 61 | 10 | 6.0 | 9.0 | 0.00 | 0.00 | 0.00 | 86 | |
| 20260502203848 | 61 | 9 | 5.0 | 9.0 | 0.00 | 0.00 | 0.00 | 86 | |
| 20260502203342 | 61 | 9 | 4.0 | 7.0 | 0.00 | 0.00 | 0.00 | 85 | |
| 20260502202835 | 61 | 9 | 5.0 | 8.0 | 0.00 | 0.00 | 0.00 | 85 | |
| 20260502202329 | 61 | 5 | 4.0 | 8.0 | 0.00 | 0.00 | 0.00 | 85 | |
| 20260502201824 | 61 | 5 | 2.0 | 7.0 | 0.00 | 0.00 | 0.00 | 85 | |
| 20260502201317 | 61 | 5 | 1.0 | 6.0 | 0.00 | 0.00 | 0.00 | 85 | |
| 20260502200812 | 61 | 5 | 0.0 | 3.0 | 0.00 | 0.00 | 0.00 | 84 | |
| 20260502200301 | 61 | 5 | 0.0 | 3.0 | 0.00 | 0.00 | 0.00 | 84 | |
| 20260502195758 | 62 | 5 | 0.0 | 0.0 | 0.00 | 0.00 | 0.00 | 82 | |
| 20260502195253 | 62 | 5 | 0.0 | 1.0 | 0.00 | 0.00 | 0.00 | 82 | |
| 20260502194748 | 62 | 5 | 0.0 | 1.0 | 0.00 | 0.00 | 0.00 | 81 | |
| 20260502194243 | 63 | 5 | 0.0 | 0.0 | 0.00 | 0.00 | 0.00 | 80 | |
| 20260502193735 | 63 | 5 | 0.0 | 5.0 | 0.00 | 0.00 | 0.00 | 80 | |
| 20260502193230 | 63 | 5 | 1.0 | 8.0 | 0.00 | 0.00 | 0.00 | 80 | |
| 20260502192719 | 64 | 5 | 1.0 | 8.0 | 0.00 | 0.00 | 0.00 | 79 | |
| 20260502192219 | 64 | 290 | 0.0 | 2.0 | 0.00 | 0.00 | 0.00 | 77 | |
| 20260502191711 | 65 | 289 | 0.0 | 0.0 | 0.00 | 0.00 | 0.00 | 76 | |
| 20260502191206 | 66 | 289 | 0.0 | 0.0 | 0.00 | 0.00 | 0.00 | 75 | |
| 20260502190659 | 67 | 289 | 0.0 | 0.0 | 0.00 | 0.00 | 0.00 | 75 | |
| 20260502190421 | 67 | 289 | 0.0 | 2.0 | 0.00 | 0.00 | 0.00 | 74 | |
| 20260502185648 | 68 | 290 | 0.0 | 2.0 | 0.00 | 0.00 | 0.00 | 73 | |
| 20260502185141 | 68 | 288 | 0.0 | 5.0 | 0.00 | 0.00 | 0.00 | 73 | |
| 20260502184635 | 69 | 288 | 0.0 | 5.0 | 0.00 | 0.00 | 0.00 | 72 | |
| 20260502184130 | 69 | 288 | 0.0 | 6.0 | 0.00 | 0.00 | 0.00 | 71 | |
| 20260502183624 | 69 | 287 | 0.0 | 6.0 | 0.00 | 0.00 | 0.00 | 70 | |
| 20260502183117 | 70 | 288 | 0.0 | 2.0 | 0.00 | 0.00 | 0.00 | 69 | |
| 20260502182611 | 70 | 287 | 0.0 | 4.0 | 0.00 | 0.00 | 0.00 | 68 | |
| 20260502182105 | 71 | 287 | 0.0 | 4.0 | 0.00 | 0.00 | 0.00 | 67 | |
| 20260502181600 | 71 | 276 | 1.0 | 5.0 | 0.00 | 0.00 | 0.00 | 67 | |
| 20260502181053 | 72 | 262 | 1.0 | 5.0 | 0.00 | 0.00 | 0.00 | 66 | |
| 20260502180547 | 72 | 269 | 0.0 | 5.0 | 0.00 | 0.00 | 0.00 | 65 | |
| 20260502170436 | 75 | 261 | 3.0 | 12.0 | 0.00 | 0.00 | 0.00 | 60 | |
| 20260502163905 | 75 | 259 | 3.0 | 14.0 | 0.00 | 0.00 | 0.00 | 60 | |
| 20260502163355 | 75 | 185 | 3.0 | 14.0 | 0.00 | 0.00 | 0.00 | 60 | |
| 20260502163124 | 75 | 220 | 3.0 | 16.0 | 0.00 | 0.00 | 0.00 | 61 | |
| 20260502162617 | 75 | 290 | 5.0 | 16.0 | 0.00 | 0.00 | 0.00 | 60 | |
| 20260502161841 | 75 | 217 | 3.0 | 13.0 | 0.00 | 0.00 | 0.00 | 60 | |
| 20260502161335 | 75 | 218 | 2.0 | 8.0 | 0.00 | 0.00 | 0.00 | 60 | |
| 20260502161100 | 75 | 213 | 3.0 | 8.0 | 0.00 | 0.00 | 0.00 | 60 | |
| 20260502160323 | 75 | 186 | 3.0 | 9.0 | 0.00 | 0.00 | 0.00 | 60 | |
| 20260502152236 | 75 | 256 | 4.0 | 15.0 | 0.00 | 0.00 | 0.00 | 60 | |
| 20260502151731 | 75 | 252 | 3.0 | 14.0 | 0.00 | 0.00 | 0.00 | 60 | |
| 20260502151223 | 74 | 292 | 4.0 | 20.0 | 0.00 | 0.00 | 0.00 | 60 | |
| 20260502150717 | 75 | 215 | 6.0 | 19.0 | 0.00 | 0.00 | 0.00 | 60 | |
| 20260502150713 | 74 | 292 | 5.0 | 20.0 | 0.00 | 0.00 | 0.00 | 60 | |
| 20260502130445 | 76 | 198 | 6.0 | 18.0 | 0.00 | 0.00 | 0.00 | 51 | |
| 20260502123412 | 77 | 202 | 6.0 | 22.0 | 0.00 | 0.00 | 0.00 | 50 | |
| 20260502123408 | 77 | 210 | 7.0 | 22.0 | 0.00 | 0.00 | 0.00 | 50 | |
| 20260502122400 | 77 | 227 | 8.0 | 22.0 | 0.00 | 0.00 | 0.00 | 49 | |
| 20260502121849 | 77 | 229 | 9.0 | 24.0 | 0.00 | 0.00 | 0.00 | 50 | |
| 20260502121348 | 77 | 198 | 7.0 | 24.0 | 0.00 | 0.00 | 0.00 | 50 | |
| 20260502121113 | 76 | 232 | 6.0 | 18.0 | 0.00 | 0.00 | 0.00 | 49 | |
| 20260502120333 | 77 | 182 | 7.0 | 17.0 | 0.00 | 0.00 | 0.00 | 46 | |
| 20260502115830 | 77 | 234 | 9.0 | 24.0 | 0.00 | 0.00 | 0.00 | 46 | |
| 20260502115328 | 77 | 232 | 7.0 | 24.0 | 0.00 | 0.00 | 0.00 | 46 | |
| 20260502114812 | 77 | 217 | 6.0 | 16.0 | 0.00 | 0.00 | 0.00 | 46 | |
| 20260502114310 | 78 | 261 | 7.0 | 21.0 | 0.00 | 0.00 | 0.00 | 45 | |
| 20260502114035 | 77 | 213 | 5.0 | 21.0 | 0.00 | 0.00 | 0.00 | 46 | |
| 20260502113253 | 77 | 194 | 7.0 | 17.0 | 0.00 | 0.00 | 0.00 | 45 | |
| 20260502112751 | 76 | 176 | 7.0 | 21.0 | 0.00 | 0.00 | 0.00 | 47 | |
| 20260502112244 | 76 | 202 | 6.0 | 21.0 | 0.00 | 0.00 | 0.00 | 46 | |
| 20260502111731 | 76 | 223 | 7.0 | 20.0 | 0.00 | 0.00 | 0.00 | 45 | |
| 20260502111230 | 76 | 170 | 5.0 | 17.0 | 0.00 | 0.00 | 0.00 | 46 | |
| 20260502110952 | 76 | 206 | 4.0 | 17.0 | 0.00 | 0.00 | 0.00 | 45 | |
| 20260502110445 | 76 | 229 | 7.0 | 20.0 | 0.00 | 0.00 | 0.00 | 46 | |
| 20260502105709 | 76 | 218 | 8.0 | 20.0 | 0.00 | 0.00 | 0.00 | 45 | |
| 20260502105206 | 76 | 143 | 8.0 | 22.0 | 0.00 | 0.00 | 0.00 | 45 | |
| 20260502104706 | 76 | 178 | 6.0 | 22.0 | 0.00 | 0.00 | 0.00 | 44 | |
| 20260502104204 | 75 | 198 | 6.0 | 19.0 | 0.00 | 0.00 | 0.00 | 42 | |
| 20260502103703 | 75 | 176 | 5.0 | 19.0 | 0.00 | 0.00 | 0.00 | 43 | |
| 20260502103442 | 75 | 194 | 3.0 | 13.0 | 0.00 | 0.00 | 0.00 | 46 | |
| 20260502102931 | 74 | 188 | 4.0 | 13.0 | 0.00 | 0.00 | 0.00 | 46 | |
| 20260502102201 | 74 | 128 | 4.0 | 13.0 | 0.00 | 0.00 | 0.00 | 45 | |
| 20260502101658 | 73 | 220 | 4.0 | 17.0 | 0.00 | 0.00 | 0.00 | 46 | |
| 20260502101157 | 73 | 199 | 6.0 | 17.0 | 0.00 | 0.00 | 0.00 | 46 | |
| 20260502100927 | 72 | 130 | 6.0 | 14.0 | 0.00 | 0.00 | 0.00 | 46 | |
| 20260502100427 | 72 | 182 | 5.0 | 13.0 | 0.00 | 0.00 | 0.00 | 48 | |
| 20260502091122 | 74 | 188 | 5.0 | 17.0 | 0.00 | 0.00 | 0.00 | 44 | |
| 20260502090615 | 73 | 181 | 4.0 | 17.0 | 0.00 | 0.00 | 0.00 | 47 | |
| 20260502090108 | 72 | 198 | 5.0 | 13.0 | 0.00 | 0.00 | 0.00 | 47 | |
| 20260502071511 | 65 | 167 | 8.0 | 17.0 | 0.00 | 0.00 | 0.00 | 55 | |
| 20260502071241 | 65 | 185 | 7.0 | 17.0 | 0.00 | 0.00 | 0.00 | 55 | |
| 20260502070514 | 65 | 192 | 4.0 | 17.0 | 0.00 | 0.00 | 0.00 | 57 | |
| 20260502070013 | 64 | 155 | 3.0 | 13.0 | 0.00 | 0.00 | 0.00 | 58 | |
| 20260502065507 | 63 | 190 | 5.0 | 18.0 | 0.00 | 0.00 | 0.00 | 59 | |
| 20260502064952 | 63 | 185 | 8.0 | 22.0 | 0.00 | 0.00 | 0.00 | 59 | |
| 20260502064446 | 62 | 158 | 7.0 | 22.0 | 0.00 | 0.00 | 0.00 | 60 | |
| 20260502063948 | 62 | 185 | 5.0 | 18.0 | 0.00 | 0.00 | 0.00 | 61 | |
| 20260502063446 | 62 | 176 | 5.0 | 14.0 | 0.00 | 0.00 | 0.00 | 62 | |
| 20260502062949 | 61 | 163 | 5.0 | 14.0 | 0.00 | 0.00 | 0.00 | 63 | |
| 20260502062450 | 60 | 211 | 3.0 | 12.0 | 0.00 | 0.00 | 0.00 | 63 | |
| 20260502061948 | 60 | 179 | 2.0 | 10.0 | 0.00 | 0.00 | 0.00 | 63 | |
| 20260502061446 | 59 | 154 | 1.0 | 8.0 | 0.00 | 0.00 | 0.00 | 64 | |
| 20260502060947 | 59 | 153 | 1.0 | 8.0 | 0.00 | 0.00 | 0.00 | 65 | |
| 20260502060447 | 58 | 147 | 1.0 | 6.0 | 0.00 | 0.00 | 0.00 | 65 | |
| 20260502055948 | 58 | 146 | 0.0 | 4.0 | 0.00 | 0.00 | 0.00 | 67 | |
| 20260502055447 | 57 | 146 | 1.0 | 7.0 | 0.00 | 0.00 | 0.00 | 66 | |
| 20260502055218 | 57 | 146 | 1.0 | 7.0 | 0.00 | 0.00 | 0.00 | 67 | |
| 20260502054447 | 56 | 141 | 1.0 | 6.0 | 0.00 | 0.00 | 0.00 | 67 | |
| 20260502054219 | 56 | 141 | 1.0 | 6.0 | 0.00 | 0.00 | 0.00 | 68 | |
| 20260502053435 | 56 | 141 | 1.0 | 6.0 | 0.00 | 0.00 | 0.00 | 68 | |
| 20260502052924 | 55 | 140 | 1.0 | 6.0 | 0.00 | 0.00 | 0.00 | 69 | |
| 20260502052411 | 54 | 140 | 1.0 | 6.0 | 0.00 | 0.00 | 0.00 | 70 | |
| 20260502051902 | 53 | 146 | 2.0 | 8.0 | 0.00 | 0.00 | 0.00 | 71 | |
| 20260502051401 | 53 | 140 | 1.0 | 8.0 | 0.00 | 0.00 | 0.00 | 72 | |
| 20260502050901 | 52 | 144 | 1.0 | 5.0 | 0.00 | 0.00 | 0.00 | 74 | |
| 20260502050401 | 51 | 144 | 1.0 | 5.0 | 0.00 | 0.00 | 0.00 | 76 | |
| 20260502045900 | 50 | 144 | 1.0 | 5.0 | 0.00 | 0.00 | 0.00 | 76 | |
| 20260502045631 | 50 | 144 | 1.0 | 6.0 | 0.00 | 0.00 | 0.00 | 76 | |
| 20260502044900 | 49 | 144 | 0.0 | 6.0 | 0.00 | 0.00 | 0.00 | 76 | |
| 20260502044401 | 49 | 144 | 0.0 | 5.0 | 0.00 | 0.00 | 0.00 | 76 | |
| 20260502043900 | 49 | 144 | 0.0 | 2.0 | 0.00 | 0.00 | 0.00 | 76 | |
| 20260502043355 | 49 | 144 | 0.0 | 4.0 | 0.00 | 0.00 | 0.00 | 76 | |
| 20260502043115 | 49 | 144 | 0.0 | 6.0 | 0.00 | 0.00 | 0.00 | 76 | |
| 20260502042612 | 49 | 144 | 0.0 | 6.0 | 0.00 | 0.00 | 0.00 | 76 | |
| 20260502041841 | 49 | 144 | 0.0 | 5.0 | 0.00 | 0.00 | 0.00 | 76 | |
| 20260502041612 | 49 | 144 | 0.0 | 5.0 | 0.00 | 0.00 | 0.00 | 76 | |
| 20260502040840 | 49 | 144 | 0.0 | 6.0 | 0.00 | 0.00 | 0.00 | 75 | |
| 20260502040341 | 49 | 143 | 0.0 | 6.0 | 0.00 | 0.00 | 0.00 | 75 | |
| 20260502035841 | 49 | 144 | 0.0 | 8.0 | 0.00 | 0.00 | 0.00 | 75 | |
| 20260502035341 | 49 | 144 | 0.0 | 8.0 | 0.00 | 0.00 | 0.00 | 74 | |
| 20260502034837 | 50 | 143 | 0.0 | 3.0 | 0.00 | 0.00 | 0.00 | 74 | |
| 20260502034335 | 50 | 143 | 1.0 | 7.0 | 0.00 | 0.00 | 0.00 | 74 | |
| 20260502033835 | 50 | 143 | 1.0 | 7.0 | 0.00 | 0.00 | 0.00 | 74 | |
| 20260502033335 | 50 | 143 | 0.0 | 4.0 | 0.00 | 0.00 | 0.00 | 73 | |
| 20260502032836 | 51 | 143 | 0.0 | 6.0 | 0.00 | 0.00 | 0.00 | 73 | |
| 20260502032333 | 51 | 143 | 0.0 | 6.0 | 0.00 | 0.00 | 0.00 | 72 | |
| 20260502031826 | 51 | 143 | 0.0 | 4.0 | 0.00 | 0.00 | 0.00 | 72 | |
| 20260502031317 | 51 | 143 | 0.0 | 4.0 | 0.00 | 0.00 | 0.00 | 72 | |
| 20260502030811 | 52 | 143 | 0.0 | 2.0 | 0.00 | 0.00 | 0.00 | 71 | |
| 20260502030544 | 52 | 143 | 1.0 | 7.0 | 0.00 | 0.00 | 0.00 | 71 | |
| 20260502025809 | 52 | 143 | 1.0 | 7.0 | 0.00 | 0.00 | 0.00 | 71 | |
| 20260502025308 | 52 | 142 | 1.0 | 6.0 | 0.00 | 0.00 | 0.00 | 71 | |
| 20260502024808 | 52 | 142 | 1.0 | 8.0 | 0.00 | 0.00 | 0.00 | 71 | |
| 20260502024307 | 52 | 142 | 2.0 | 8.0 | 0.00 | 0.00 | 0.00 | 71 | |
| 20260502023807 | 53 | 136 | 1.0 | 8.0 | 0.00 | 0.00 | 0.00 | 71 | |
| 20260502023538 | 53 | 124 | 1.0 | 8.0 | 0.00 | 0.00 | 0.00 | 71 | |
| 20260502023528 | 53 | 124 | 1.0 | 7.0 | 0.00 | 0.00 | 0.00 | 71 | |
| 20260502022307 | 53 | 124 | 1.0 | 7.0 | 0.00 | 0.00 | 0.00 | 71 | |
| 20260502021807 | 53 | 127 | 1.0 | 7.0 | 0.00 | 0.00 | 0.00 | 71 | |
| 20260502021308 | 53 | 128 | 1.0 | 7.0 | 0.00 | 0.00 | 0.00 | 71 | |
| 20260502021035 | 53 | 129 | 1.0 | 12.0 | 0.00 | 0.00 | 0.00 | 71 | |
| 20260502020303 | 53 | 128 | 1.0 | 12.0 | 0.00 | 0.00 | 0.00 | 70 | |
| 20260502015803 | 53 | 145 | 1.0 | 6.0 | 0.00 | 0.00 | 0.00 | 70 | |
| 20260502015301 | 53 | 145 | 0.0 | 6.0 | 0.00 | 0.00 | 0.00 | 70 | |
| 20260502014753 | 54 | 145 | 0.0 | 6.0 | 0.00 | 0.00 | 0.00 | 69 | |
| 20260502014514 | 54 | 145 | 1.0 | 7.0 | 0.00 | 0.00 | 0.00 | 69 | |
| 20260502013734 | 54 | 144 | 1.0 | 8.0 | 0.00 | 0.00 | 0.00 | 69 | |
| 20260502013231 | 54 | 119 | 1.0 | 8.0 | 0.00 | 0.00 | 0.00 | 70 | |
| 20260502012726 | 54 | 120 | 1.0 | 7.0 | 0.00 | 0.00 | 0.00 | 70 | |
| 20260502012218 | 54 | 119 | 1.0 | 7.0 | 0.00 | 0.00 | 0.00 | 69 | |
| 20260502011715 | 54 | 119 | 1.0 | 10.0 | 0.00 | 0.00 | 0.00 | 69 | |
| 20260502011203 | 54 | 119 | 1.0 | 10.0 | 0.00 | 0.00 | 0.00 | 70 | |
| 20260502010701 | 54 | 119 | 1.0 | 7.0 | 0.00 | 0.00 | 0.00 | 70 | |
| 20260502010205 | 54 | 119 | 1.0 | 4.0 | 0.00 | 0.00 | 0.00 | 70 | |
| 20260502005921 | 54 | 119 | 1.0 | 8.0 | 0.00 | 0.00 | 0.00 | 69 | |
| 20260502005143 | 54 | 119 | 1.0 | 8.0 | 0.00 | 0.00 | 0.00 | 70 | |
| 20260502004902 | 54 | 118 | 0.0 | 4.0 | 0.00 | 0.00 | 0.00 | 70 | |
| 20260502004130 | 54 | 115 | 1.0 | 8.0 | 0.00 | 0.00 | 0.00 | 69 | |
| 20260502003623 | 54 | 115 | 0.0 | 8.0 | 0.00 | 0.00 | 0.00 | 69 | |
| 20260502003116 | 54 | 114 | 0.0 | 7.0 | 0.00 | 0.00 | 0.00 | 69 | |
| 20260502002610 | 55 | 115 | 0.0 | 7.0 | 0.00 | 0.00 | 0.00 | 69 | |
| 20260502002102 | 55 | 104 | 1.0 | 8.0 | 0.00 | 0.00 | 0.00 | 70 | |
| 20260502001559 | 55 | 103 | 0.0 | 8.0 | 0.00 | 0.00 | 0.00 | 70 | |
| 20260502001323 | 54 | 103 | 1.0 | 9.0 | 0.00 | 0.00 | 0.00 | 70 | |
| 20260502000549 | 54 | 103 | 1.0 | 9.0 | 0.00 | 0.00 | 0.00 | 70 | |
| 20260502000040 | 54 | 100 | 0.0 | 6.0 | 0.00 | 0.00 | 0.00 | 70 | |
| 20260501235535 | 54 | 100 | 0.0 | 5.0 | 0.00 | 0.00 | 0.00 | 70 | |
| 20260501235029 | 55 | 100 | 0.0 | 5.0 | 0.00 | 0.00 | 0.00 | 70 | |
| 20260501234525 | 55 | 100 | 0.0 | 2.0 | 0.00 | 0.00 | 0.00 | 70 | |
| 20260501234017 | 55 | 100 | 0.0 | 2.0 | 0.00 | 0.00 | 0.00 | 69 | |
| 20260501233511 | 55 | 100 | 0.0 | 2.0 | 0.00 | 0.00 | 0.00 | 70 | |
| 20260501233000 | 55 | 100 | 0.0 | 2.0 | 0.00 | 0.00 | 0.00 | 70 | |
| 20260501232500 | 55 | 100 | 0.0 | 3.0 | 0.00 | 0.00 | 0.00 | 70 | |
| 20260501232226 | 55 | 100 | 0.0 | 3.0 | 0.00 | 0.00 | 0.00 | 70 |